Location: Newark
(48.7500°N, 7.4667°E)
Time: 02:51:49
(UTC+00:00)

Falcon 9 debris - Visible Passes

Search period start: 20 July 2019 00:00
Search period end: 30 July 2019 00:00
Orbit: 431 x 439 km, 53.0° (Epoch: 19 July)

Date Brightness Start Highest point End Pass type
(mag) Time Alt. Az. Time Alt. Az. Time Alt. Az.
20 Jul 3.4 00:38:50 52° SE 00:38:50 52° SE 00:41:58 10° ENE visible
20 Jul 4.0 02:12:21 10° W 02:15:42 47° NNW 02:19:03 10° ENE visible
20 Jul 4.7 23:57:50 25° E 23:57:50 25° E 23:59:38 10° ENE visible
21 Jul 3.7 01:31:05 19° W 01:33:23 55° NNW 01:36:47 10° ENE visible
21 Jul 4.5 03:07:32 10° WNW 03:10:49 39° N 03:14:06 10° ENE visible
21 Jul 5.7 23:16:46 13° E 23:16:46 13° E 23:17:14 10° E visible
22 Jul 3.4 00:50:02 40° W 00:51:04 67° NNW 00:54:31 10° ENE visible
22 Jul 4.5 02:25:11 10° WNW 02:28:28 39° N 02:31:44 10° ENE visible
23 Jul 3.1 00:08:55 81° NE 00:08:55 81° NE 00:12:15 10° ENE visible
23 Jul 4.5 01:42:49 10° WNW 01:46:06 40° N 01:49:23 10° ENE visible
23 Jul 4.2 23:27:45 37° ENE 23:27:45 37° ENE 23:29:58 10° ENE visible
24 Jul 4.3 01:01:00 14° WNW 01:03:45 42° N 01:07:04 10° ENE visible
24 Jul 4.3 02:37:52 10° WNW 02:41:13 46° NNE 02:44:33 10° E visible
24 Jul 5.1 22:46:29 20° ENE 22:46:29 20° ENE 22:47:40 10° ENE visible
25 Jul 4.1 00:19:44 25° WNW 00:21:24 47° NNW 00:24:46 10° ENE visible
25 Jul 4.4 01:55:34 10° WNW 01:58:51 41° N 02:02:10 10° E visible
25 Jul 5.6 22:05:02 12° ENE 22:05:02 12° ENE 22:05:19 10° ENE visible
25 Jul 3.7 23:38:15 42° WNW 23:39:04 56° NNW 23:42:29 10° ENE visible
26 Jul 4.5 01:13:13 10° WNW 01:16:30 39° N 01:19:46 10° ENE visible
26 Jul 3.2 02:50:23 10° WNW 02:53:50 80° NNE 02:57:17 10° ESE visible
26 Jul 3.4 22:56:18 59° WNW 22:56:45 68° NNW 23:00:12 10° ENE visible
27 Jul 4.6 00:30:51 10° WNW 00:34:08 39° N 00:37:24 10° ENE visible
27 Jul 3.6 02:08:06 10° WNW 02:11:32 64° NNE 02:14:57 10° ESE visible
27 Jul 4.5 20:35:12 10° S 20:37:46 20° SE 20:40:20 10° E visible
27 Jul 3.0 22:10:59 10° WSW 22:14:27 87° NNW 22:17:55 10° ENE visible
27 Jul 4.5 23:48:28 10° WNW 23:51:46 40° N 23:55:03 10° ENE visible
28 Jul 3.9 01:25:49 10° WNW 01:29:12 53° NNE 01:32:35 10° E visible
28 Jul 3.5 03:02:56 10° WNW 03:06:14 42° SW 03:09:30 10° SE visible
28 Jul 4.9 19:53:47 10° SSE 19:55:40 14° SE 19:57:32 10° E visible
28 Jul 3.0 21:28:44 10° SW 21:32:11 72° SSE 21:35:38 10° ENE visible
28 Jul 4.3 23:06:05 10° W 23:09:24 43° N 23:12:43 10° ENE visible
29 Jul 4.2 00:43:31 10° WNW 00:46:52 45° NNE 00:50:12 10° E visible
29 Jul 3.1 02:20:36 10° WNW 02:24:00 59° SSW 02:27:24 10° SE visible
29 Jul 3.2 20:46:34 10° SW 20:49:56 52° SSE 20:53:19 10° ENE visible
29 Jul 4.1 22:23:40 10° W 22:27:02 48° NNW 22:30:24 10° ENE visible
